GW3580 Weather Reports


time (UTC)temp
C
wind
direction
speed
KPH
gust
KPH
rain 1hr
cm
rain 24hr
cm
rain mn
cm
humidity
%
barometer
mb
20260505204807 20 279 4.8 6.4 0.00 0.00 0.00 44 1014.4
20260505204305 20 245 4.8 8.0 0.00 0.00 0.00 43 1014.2
20260505203802 19 266 6.4 8.0 0.00 0.00 0.00 43 1014.4
20260505203258 18 279 6.4 8.0 0.00 0.00 0.00 43 1014.4
20260505202754 18 236 4.8 6.4 0.00 0.00 0.00 44 1014.4
20260505202251 19 278 9.7 11.3 0.00 0.00 0.00 44 1014.3
20260505201747 20 249 9.7 11.3 0.00 0.00 0.00 43 1014.4
20260505201245 20 226 3.2 6.4 0.00 0.00 0.00 44 1014.4
20260505200743 20 225 4.8 6.4 0.00 0.00 0.00 45 1014.3
20260505200240 19 253 3.2 6.4 0.00 0.00 0.00 48 1014.4
20260505195729 20 257 1.6 6.4 0.00 0.00 0.00 48 1014.5
20260505195227 18 321 3.2 3.2 0.00 0.00 0.00 50 1014.2
20260505194724 18 282 9.7 12.9 0.00 0.00 0.00 49 1014.5
20260505194221 19 283 4.8 8.0 0.00 0.00 0.00 48 1014.8
20260505193717 18 227 4.8 6.4 0.00 0.00 0.00 48 1014.6
20260505193214 18 305 9.7 11.3 0.00 0.00 0.00 50 1014.4
20260505192713 18 279 3.2 6.4 0.00 0.00 0.00 52 1014.6
20260505192209 17 251 6.4 8.0 0.00 0.00 0.00 52 1014.5
20260505191707 17 239 3.2 6.4 0.00 0.00 0.00 55 1014.5
20260505191205 17 266 6.4 8.0 0.00 0.00 0.00 54 1014.6
20260505190701 17 267 6.4 8.0 0.00 0.00 0.00 57 1014.7
20260505190156 17 251 8.0 9.7 0.00 0.00 0.00 56 1014.8
20260505185653 17 249 6.4 8.0 0.00 0.00 0.00 55 1014.9
20260505185149 17 32 1.6 3.2 0.00 0.00 0.00 58 1014.8
20260505184645 17 274 8.0 9.7 0.00 0.00 0.00 57 1014.8
20260505184143 16 280 8.0 11.3 0.00 0.00 0.00 57 1015.0
20260505183639 16 245 8.0 8.0 0.00 0.00 0.00 57 1014.8
20260505183137 16 250 3.2 3.2 0.00 0.00 0.00 58 1015.0
20260505182633 16 288 6.4 8.0 0.00 0.00 0.00 59 1015.0
20260505182130 17 249 4.8 8.0 0.00 0.00 0.00 58 1015.0
20260505181626 16 311 1.6 3.2 0.00 0.00 0.00 59 1015.0
20260505181124 16 278 8.0 9.7 0.00 0.00 0.00 60 1015.0
20260505180620 16 273 6.4 9.7 0.00 0.00 0.00 61 1014.9
20260505180118 16 33 3.2 6.4 0.00 0.00 0.00 61 1014.9
20260505175613 16 243 6.4 8.0 0.00 0.00 0.00 61 1014.8
20260505175110 16 247 4.8 6.4 0.00 0.00 0.00 61 1014.7
20260505174607 16 256 8.0 9.7 0.00 0.00 0.00 62 1014.6
20260505174103 15 239 3.2 3.2 0.00 0.00 0.00 62 1014.6
20260505173600 15 269 4.8 6.4 0.00 0.00 0.00 62 1014.6
20260505173056 15 329 1.6 3.2 0.00 0.00 0.00 63 1014.3
20260505172554 15 239 4.8 6.4 0.00 0.00 0.00 63 1014.4
20260505172051 16 265 6.4 9.7 0.00 0.00 0.00 63 1014.2
20260505171545 15 246 6.4 8.0 0.00 0.00 0.00 64 1014.3
20260505171043 15 259 3.2 3.2 0.00 0.00 0.00 66 1014.3
20260505170539 15 280 3.2 3.2 0.00 0.00 0.00 67 1014.5
20260505170036 14 272 0.0 1.6 0.00 0.00 0.00 68 1014.5
20260505165531 14 246 8.0 9.7 0.00 0.00 0.00 68 1014.6
20260505165027 14 253 3.2 3.2 0.00 0.00 0.00 68 1014.4
20260505164523 14 230 3.2 3.2 0.00 0.00 0.00 70 1014.3
20260505164021 13 282 3.2 3.2 0.00 0.00 0.00 71 1014.4
20260505163519 13 262 3.2 3.2 0.00 0.00 0.00 71 1014.2
20260505163016 13 271 8.0 9.7 0.00 0.00 0.00 72 1014.1
20260505162509 13 250 6.4 8.0 0.00 0.00 0.00 73 1014.2
20260505162006 12 273 8.0 9.7 0.00 0.00 0.00 73 1014.0
20260505161503 12 292 4.8 6.4 0.00 0.00 0.00 75 1014.0
20260505161000 12 19 0.0 0.0 0.00 0.00 0.00 75 1014.2
20260505160458 12 262 1.6 1.6 0.00 0.00 0.00 76 1014.3
20260505152934 12 261 0.0 0.0 0.00 0.00 0.00 78 1014.1
20260505152432 12 303 3.2 3.2 0.00 0.00 0.00 78 1014.2
20260505151931 12 357 1.6 1.6 0.00 0.00 0.00 78 1014.0
20260505151422 12 247 1.6 3.2 0.00 0.00 0.00 79 1014.0
20260505150920 12 284 1.6 3.2 0.00 0.00 0.00 79 1013.9
20260505150416 12 260 4.8 6.4 0.00 0.00 0.00 79 1013.8
20260505140346 11 263 3.2 3.2 0.00 0.00 0.00 81 1013.4
20260505130309 11 4 1.6 3.2 0.00 0.00 0.00 83 1013.1
20260505124800 11 238 3.2 3.2 0.00 0.00 0.00 83 1013.1
20260505124257 11 259 3.2 3.2 0.00 0.00 0.00 83 1013.0
20260505123752 11 266 1.6 1.6 0.00 0.00 0.00 83 1012.9
20260505123249 11 233 3.2 3.2 0.00 0.00 0.00 82 1013.1
20260505122745 11 266 1.6 3.2 0.00 0.00 0.00 82 1013.1
20260505122243 11 264 3.2 6.4 0.00 0.00 0.00 82 1013.1
20260505121739 11 270 1.6 1.6 0.00 0.00 0.00 82 1013.2
20260505121236 11 243 4.8 6.4 0.00 0.00 0.00 82 1013.0
20260505120732 11 193 1.6 3.2 0.00 0.00 0.00 82 1012.9
20260505120229 11 275 4.8 6.4 0.00 0.00 0.00 82 1012.9
20260505115727 11 242 4.8 8.0 0.00 0.00 0.00 82 1013.1
20260505115225 11 220 3.2 3.2 0.00 0.00 0.00 82 1013.0
20260505114722 11 263 8.0 14.5 0.00 0.00 0.00 82 1013.0
20260505114218 11 257 4.8 6.4 0.00 0.00 0.00 82 1012.9
20260505113715 12 263 1.6 3.2 0.00 0.00 0.00 82 1012.9
20260505113212 12 261 6.4 8.0 0.00 0.00 0.00 81 1013.0
20260505112708 12 233 3.2 3.2 0.00 0.00 0.00 81 1012.9
20260505112206 12 266 1.6 3.2 0.00 0.00 0.00 80 1012.9
20260505111705 12 255 6.4 8.0 0.00 0.00 0.00 80 1013.0
20260505111202 12 259 4.8 8.0 0.00 0.00 0.00 79 1013.0
20260505110658 12 267 4.8 8.0 0.00 0.00 0.00 79 1012.9
20260505110155 12 264 4.8 8.0 0.00 0.00 0.00 78 1012.9
20260505102131 13 263 4.8 8.0 0.00 0.00 0.00 74 1012.8
20260505101629 13 239 4.8 6.4 0.00 0.00 0.00 74 1013.0
20260505101125 13 253 4.8 6.4 0.00 0.00 0.00 74 1012.9
20260505100621 13 196 6.4 8.0 0.00 0.00 0.00 74 1012.9
20260505100119 13 277 4.8 6.4 0.00 0.00 0.00 74 1012.9
20260505095615 13 258 3.2 3.2 0.00 0.00 0.00 74 1013.0
20260505095111 13 239 4.8 6.4 0.00 0.00 0.00 74 1012.9
20260505094608 13 277 4.8 6.4 0.00 0.00 0.00 74 1012.8
20260505094104 13 238 4.8 6.4 0.00 0.00 0.00 74 1012.9
20260505093600 13 272 3.2 3.2 0.00 0.00 0.00 74 1013.0
20260505093058 13 269 8.0 9.7 0.00 0.00 0.00 74 1013.0
20260505092555 13 241 4.8 8.0 0.00 0.00 0.00 74 1013.1
20260505092054 13 264 4.8 6.4 0.00 0.00 0.00 73 1013.1
20260505091550 13 254 4.8 6.4 0.00 0.00 0.00 74 1012.9
20260505091049 13 267 4.8 6.4 0.00 0.00 0.00 74 1013.1
20260505090546 13 244 4.8 8.0 0.00 0.00 0.00 74 1013.0
20260505090044 13 239 3.2 6.4 0.00 0.00 0.00 74 1012.9
20260505085541 13 265 4.8 6.4 0.00 0.00 0.00 75 1013.0
20260505085039 13 236 3.2 3.2 0.00 0.00 0.00 75 1013.0
20260505084537 13 245 0.0 1.6 0.00 0.00 0.00 75 1012.9
20260505084035 13 260 4.8 6.4 0.00 0.00 0.00 74 1013.1
20260505083532 13 292 8.0 11.3 0.00 0.00 0.00 74 1013.0
20260505083028 13 296 3.2 3.2 0.00 0.00 0.00 74 1012.9
20260505082524 13 262 3.2 3.2 0.00 0.00 0.00 74 1012.9
20260505082021 13 265 6.4 8.0 0.00 0.00 0.00 74 1013.2
20260505081518 13 236 1.6 3.2 0.00 0.00 0.00 74 1013.0
20260505081015 13 286 3.2 3.2 0.00 0.00 0.00 73 1013.1
20260505080511 13 264 4.8 6.4 0.00 0.00 0.00 73 1013.2
20260505080008 13 295 3.2 6.4 0.00 0.00 0.00 73 1013.1
20260505075504 13 266 6.4 8.0 0.00 0.00 0.00 73 1013.3
20260505075001 13 293 4.8 6.4 0.00 0.00 0.00 73 1013.4
20260505074458 13 292 1.6 1.6 0.00 0.00 0.00 73 1013.0
20260505073955 13 250 4.8 6.4 0.00 0.00 0.00 73 1013.2
20260505073452 13 250 3.2 3.2 0.00 0.00 0.00 72 1013.1
20260505072950 13 260 3.2 3.2 0.00 0.00 0.00 71 1013.3
20260505072446 13 308 1.6 1.6 0.00 0.00 0.00 71 1013.2
20260505071942 13 285 1.6 3.2 0.00 0.00 0.00 72 1013.0
20260505071438 13 266 1.6 1.6 0.00 0.00 0.00 72 1013.1
20260505070937 13 261 4.8 6.4 0.00 0.00 0.00 72 1013.1
20260505070433 13 283 4.8 6.4 0.00 0.00 0.00 71 1013.2
20260505065929 13 274 1.6 1.6 0.00 0.00 0.00 72 1013.2
20260505065425 13 261 3.2 3.2 0.00 0.00 0.00 71 1013.0
20260505064922 13 262 1.6 1.6 0.00 0.00 0.00 71 1013.2
20260505064419 13 265 1.6 1.6 0.00 0.00 0.00 70 1013.2
20260505063918 13 272 1.6 3.2 0.00 0.00 0.00 70 1013.1
20260505063414 13 263 3.2 3.2 0.00 0.00 0.00 70 1013.0
20260505062910 13 249 3.2 3.2 0.00 0.00 0.00 69 1013.2
20260505062408 13 267 3.2 3.2 0.00 0.00 0.00 69 1013.1
20260505061904 13 251 3.2 8.0 0.00 0.00 0.00 70 1013.2
20260505061402 13 262 4.8 6.4 0.00 0.00 0.00 70 1013.2
20260505060859 13 258 3.2 3.2 0.00 0.00 0.00 71 1013.2
20260505060356 13 274 1.6 1.6 0.00 0.00 0.00 71 1013.2
20260505055852 13 254 3.2 3.2 0.00 0.00 0.00 71 1013.4
20260505055348 14 281 3.2 3.2 0.00 0.00 0.00 73 1013.3
20260505054846 14 13 0.0 0.0 0.00 0.00 0.00 73 1013.1
20260505054343 14 264 0.0 0.0 0.00 0.00 0.00 73 1013.3
20260505053841 14 330 0.0 0.0 0.00 0.00 0.00 73 1013.5
20260505053338 14 267 1.6 1.6 0.00 0.00 0.00 72 1013.2
20260505052834 14 252 3.2 3.2 0.00 0.00 0.00 72 1013.2
20260505052331 15 242 1.6 1.6 0.00 0.00 0.00 72 1013.5
20260505051829 15 258 1.6 1.6 0.00 0.00 0.00 69 1013.4
20260505051326 15 267 1.6 3.2 0.00 0.00 0.00 69 1013.4
20260505050824 15 281 1.6 1.6 0.00 0.00 0.00 69 1013.2
20260505050322 15 270 1.6 1.6 0.00 0.00 0.00 68 1013.4
20260505041752 15 277 1.6 1.6 0.00 0.00 0.00 66 1013.3
20260505041249 15 275 1.6 1.6 0.00 0.00 0.00 66 1013.2
20260505040747 15 282 1.6 1.6 0.00 0.00 0.00 67 1013.1
20260505040244 15 248 1.6 1.6 0.00 0.00 0.00 67 1013.0
20260505035741 15 266 1.6 1.6 0.00 0.00 0.00 67 1013.1
20260505035236 15 264 0.0 0.0 0.00 0.00 0.00 67 1013.2
20260505034733 15 264 0.0 0.0 0.00 0.00 0.00 67 1012.9
20260505034230 15 263 1.6 1.6 0.00 0.00 0.00 67 1013.0
20260505033727 15 270 1.6 1.6 0.00 0.00 0.00 67 1013.0
20260505033225 15 291 1.6 1.6 0.00 0.00 0.00 67 1012.8
20260505032723 15 277 3.2 3.2 0.00 0.00 0.00 68 1012.9
20260505032218 15 349 0.0 0.0 0.00 0.00 0.00 68 1012.6
20260505031716 15 0 0.0 0.0 0.00 0.00 0.00 67 1012.9
20260505031212 15 331 0.0 0.0 0.00 0.00 0.00 67 1012.9
20260505030709 15 335 0.0 0.0 0.00 0.00 0.00 67 1012.9
20260505030205 15 255 1.6 3.2 0.00 0.00 0.00 66 1012.8
20260505025701 15 263 0.0 0.0 0.00 0.00 0.00 65 1012.8
20260505025159 15 282 3.2 3.2 0.00 0.00 0.00 65 1012.8
20260505024657 15 271 1.6 1.6 0.00 0.00 0.00 65 1012.7
20260505024154 15 279 3.2 3.2 0.00 0.00 0.00 64 1012.7
20260505023651 15 258 0.0 1.6 0.00 0.00 0.00 65 1012.7
20260505023149 15 287 1.6 1.6 0.00 0.00 0.00 65 1012.6
20260505022646 15 327 0.0 0.0 0.00 0.00 0.00 64 1012.6
20260505022143 15 335 0.0 0.0 0.00 0.00 0.00 64 1012.9
20260505021639 15 281 1.6 1.6 0.00 0.00 0.00 63 1012.6
20260505021136 15 1 0.0 0.0 0.00 0.00 0.00 63 1012.8
20260505020632 15 2 0.0 0.0 0.00 0.00 0.00 62 1012.5
20260505020128 15 3 0.0 0.0 0.00 0.00 0.00 61 1012.8
20260505015626 15 38 0.0 0.0 0.00 0.00 0.00 63 1012.8
20260505015122 15 39 0.0 0.0 0.00 0.00 0.00 63 1012.9
20260505014619 15 37 1.6 1.6 0.00 0.00 0.00 62 1012.6
20260505014116 15 38 0.0 0.0 0.00 0.00 0.00 62 1012.8
20260505013613 15 52 0.0 0.0 0.00 0.00 0.00 62 1013.1
20260505013110 16 34 1.6 1.6 0.00 0.00 0.00 60 1013.1
20260505012609 16 25 0.0 0.0 0.00 0.00 0.00 60 1012.9
20260505012105 16 9 0.0 0.0 0.00 0.00 0.00 59 1013.1
20260505011600 16 28 0.0 0.0 0.00 0.00 0.00 59 1013.0
20260505011058 16 29 1.6 3.2 0.00 0.00 0.00 59 1012.8
20260505010553 16 40 0.0 0.0 0.00 0.00 0.00 58 1013.0
20260505010050 16 19 0.0 1.6 0.00 0.00 0.00 59 1013.0
20260505005546 16 14 0.0 0.0 0.00 0.00 0.00 59 1013.2
20260505005044 16 355 1.6 3.2 0.00 0.00 0.00 59 1013.1
20260505004541 16 13 0.0 1.6 0.00 0.00 0.00 60 1013.2
20260505004038 16 25 0.0 0.0 0.00 0.00 0.00 60 1013.2
20260505003535 16 55 1.6 1.6 0.00 0.00 0.00 60 1013.1
20260505003032 15 21 3.2 3.2 0.00 0.00 0.00 60 1013.3
20260505002526 15 61 3.2 3.2 0.00 0.00 0.00 61 1013.4
20260505002026 15 35 3.2 3.2 0.00 0.00 0.00 61 1013.4
20260505001522 15 58 3.2 3.2 0.00 0.00 0.00 61 1013.2
20260505001020 16 77 3.2 3.2 0.00 0.00 0.00 62 1013.4
20260505000517 16 39 1.6 3.2 0.00 0.00 0.00 61 1013.2
20260505000015 16 54 1.6 1.6 0.00 0.00 0.00 60 1013.5
20260504235511 16 26 1.6 1.6 0.00 0.00 0.00 59 1013.4
20260504235007 16 69 0.0 1.6 0.00 0.00 0.00 60 1013.7
20260504234505 16 7 3.2 6.4 0.00 0.00 0.00 59 1013.5
20260504234001 16 56 0.0 0.0 0.00 0.00 0.00 59 1013.6
20260504233456 16 22 0.0 0.0 0.00 0.00 0.00 59 1013.6
20260504232954 16 359 0.0 0.0 0.00 0.00 0.00 58 1013.5
20260504232451 16 15 6.4 8.0 0.00 0.00 0.00 57 1013.5
20260504231948 16 65 1.6 1.6 0.00 0.00 0.00 59 1013.5
20260504231444 16 80 3.2 6.4 0.00 0.00 0.00 61 1013.5
20260504230941 16 73 3.2 6.4 0.00 0.00 0.00 60 1013.6
20260504230437 16 76 3.2 6.4 0.00 0.00 0.00 60 1013.6
20260504225937 16 103 8.0 9.7 0.00 0.00 0.00 60 1013.7
20260504225433 16 3 3.2 6.4 0.00 0.00 0.00 61 1013.9
20260504224930 16 72 3.2 3.2 0.00 0.00 0.00 61 1013.9
20260504224427 16 1 1.6 6.4 0.00 0.00 0.00 61 1013.8
20260504223924 16 353 4.8 6.4 0.00 0.00 0.00 61 1014.0
20260504223419 16 29 1.6 3.2 0.00 0.00 0.00 60 1014.0
20260504222916 16 10 1.6 1.6 0.00 0.00 0.00 59 1013.9
20260504222413 16 48 0.0 0.0 0.00 0.00 0.00 60 1014.1
20260504221911 15 48 0.0 0.0 0.00 0.00 0.00 59 1014.2
20260504221408 15 32 1.6 3.2 0.00 0.00 0.00 60 1014.0
20260504220905 15 61 0.0 1.6 0.00 0.00 0.00 60 1014.1
20260504220401 15 64 1.6 1.6 0.00 0.00 0.00 61 1014.2
20260504215859 15 57 0.0 0.0 0.00 0.00 0.00 61 1014.4
20260504215355 15 91 3.2 3.2 0.00 0.00 0.00 61 1014.5
20260504214852 15 34 0.0 0.0 0.00 0.00 0.00 60 1014.4
20260504214348 15 38 1.6 1.6 0.00 0.00 0.00 60 1014.3
20260504213845 15 24 1.6 1.6 0.00 0.00 0.00 61 1014.4
20260504213340 15 38 0.0 0.0 0.00 0.00 0.00 61 1014.6
20260504212838 15 59 1.6 1.6 0.00 0.00 0.00 60 1014.6
20260504212334 15 47 1.6 1.6 0.00 0.00 0.00 60 1014.4
20260504211832 15 6 3.2 6.4 0.00 0.00 0.00 60 1014.6
20260504211328 15 57 1.6 3.2 0.00 0.00 0.00 60 1014.8
20260504210826 15 14 1.6 1.6 0.00 0.00 0.00 60 1014.6
20260504210323 15 46 3.2 6.4 0.00 0.00 0.00 60 1014.6
20260504205820 15 54 0.0 0.0 0.00 0.00 0.00 59 1014.7
20260504205318 15 23 1.6 1.6 0.00 0.00 0.00 59 1014.6